Wind_Speed
2 1 1 1 1 1 2 2 2 2 2 2 2 4 4 5 6 6 6 6 6 6 5 5 5 5 5 6 6 6 6 6 4 2 1 2 4 4 3 2 0 1 3 4 6 4 3 6 8 11 5 3 4 2 3 2 3 5 4 4 3 4 4 5 7 7 4 4 6 4 4 7 4 2 1 2 6 4 2 4 3 4 4 0 1 8 21 24
2 2 1 1 1 1 2 3 3 2 2 2 3 4 5 5 6 6 6 6 6 5 5 5 4 4 5 6 6 6 7 6 3 2 2 3 5 5 5 2 1 2 4 4 7 6 4 5 8 8 6 3 3 3 3 2 3 4 3 4 3 5 4 5 7 6 3 3 6 4 3 6 6 4 3 1 1 1 2 2 5 4 3 1 3 10 18 22
3 2 1 1 1 2 2 2 3 3 2 2 3 4 5 5 6 6 6 5 6 5 5 4 4 4 4 5 6 7 6 4 2 2 2 1 1 3 3 2 2 3 5 5 6 6 3 3 4 4 4 3 2 3 4 3 2 2 4 4 4 6 4 3 6 7 5 4 7 4 2 2 3 4 2 3 3 1 4 4 0 2 5 4 3 9 16 20
3 2 1 1 1 2 2 2 3 3 3 2 3 4 4 5 5 5 5 5 5 4 4 3 3 4 4 5 5 6 5 4 1 1 1 1 3 4 4 4 3 4 5 5 4 5 3 1 2 3 4 2 4 4 3 3 1 2 4 3 5 4 1 3 5 5 4 4 7 4 4 1 3 2 2 6 5 3 6 7 7 8 9 9 6 8 16 18
3 2 1 1 1 2 3 3 3 3 3 3 2 3 3 3 4 4 4 5 4 4 3 3 3 3 4 5 5 6 5 4 1 2 2 2 4 5 5 5 4 5 6 6 4 4 4 3 5 5 4 2 5 4 2 3 2 3 2 3 5 4 1 3 4 3 3 5 5 5 4 3 1 1 3 8 6 6 6 7 9 9 11 12 10 11 14 15
4 3 2 1 2 2 2 3 3 3 4 4 3 2 2 3 3 3 3 3 3 3 2 2 3 3 4 4 5 4 3 1 3 2 3 4 6 5 5 4 4 5 5 5 4 4 4 5 6 4 3 3 3 2 0 5 2 3 1 1 3 4 1 2 2 3 4 6 5 5 3 1 2 2 2 7 8 7 5 5 7 7 11 14 12 12 12 13
4 3 3 2 2 2 2 3 4 4 4 4 3 3 2 2 2 2 2 2 3 2 2 2 3 3 4 3 3 4 3 2 3 4 5 6 6 5 5 3 3 4 4 5 6 4 4 7 6 3 4 3 0 1 1 5 4 6 1 1 1 4 3 2 2 2 5 6 6 4 2 2 4 3 0 5 10 6 3 3 4 7 13 14 11 10 11 13
6 4 4 3 3 3 2 3 4 4 4 4 4 3 2 2 1 1 1 2 2 1 1 2 3 3 3 2 1 4 2 3 4 7 7 7 6 5 4 2 2 3 4 6 6 3 4 6 3 3 4 2 2 2 3 4 5 5 2 2 0 1 3 2 2 0 2 4 2 4 2 4 6 3 1 7 10 3 2 2 5 9 11 11 9 9 9 11
6 5 5 4 4 3 2 3 4 4 4 4 4 4 3 1 1 1 1 1 1 1 1 2 3 3 3 1 4 2 3 3 6 9 8 7 6 4 2 1 2 2 4 6 5 4 3 2 2 3 3 2 2 2 3 2 1 1 4 2 1 1 4 1 1 2 2 1 2 4 3 5 2 1 4 8 7 1 3 6 6 8 9 8 8 8 9 10
6 5 5 4 4 4 3 3 4 4 5 5 5 4 3 1 1 1 1 1 1 1 1 1 3 2 1 1 5 1 4 2 7 10 8 8 7 4 2 1 2 2 3 5 6 6 4 4 3 3 5 2 2 1 2 2 1 2 4 2 1 1 4 1 3 3 1 2 3 6 6 5 3 1 5 5 2 4 6 6 4 7 8 8 6 7 9 10
6 7 7 5 4 4 4 3 4 4 5 5 5 4 3 1 2 2 1 1 1 1 1 1 2 1 1 2 5 3 3 3 8 9 8 8 6 3 1 1 1 1 2 5 6 6 4 4 5 4 2 1 1 2 2 1 1 2 3 1 3 5 5 1 2 4 1 2 5 7 4 3 4 1 6 4 2 5 6 6 5 6 7 6 6 5 7 9
7 7 8 6 5 5 5 4 5 5 6 6 6 5 3 2 2 2 2 2 2 2 1 0 1 1 1 2 2 4 3 3 7 9 8 7 5 3 1 1 1 2 2 3 4 4 4 2 5 4 0 2 2 2 0 1 2 2 4 1 6 8 6 3 2 4 4 2 5 6 2 4 3 7 7 3 3 4 6 7 5 6 6 5 5 5 6 9
6 7 7 7 6 6 6 5 5 6 6 6 6 6 4 3 2 2 3 3 3 2 2 1 0 1 2 0 3 4 3 3 6 8 8 6 5 3 1 1 1 3 2 4 4 4 4 2 5 5 2 4 2 1 2 3 3 1 3 2 4 7 5 3 1 1 5 3 4 4 2 6 8 10 6 1 5 6 5 7 6 6 5 5 6 5 6 9
6 6 6 6 6 7 6 6 6 7 8 8 7 7 5 4 3 3 3 4 4 3 2 2 1 1 2 2 4 3 5 4 5 7 7 6 5 4 2 1 1 2 3 4 5 4 4 2 6 6 2 3 2 1 4 6 4 1 1 2 2 2 4 5 1 3 5 2 1 4 2 6 9 10 6 3 6 7 7 8 6 6 6 5 6 6 7 9
7 7 6 6 6 6 6 7 7 8 8 8 8 7 5 3 3 2 2 3 4 3 3 3 2 2 2 3 4 3 5 5 5 7 7 7 5 4 2 2 2 3 3 3 5 5 5 4 6 5 1 2 4 4 4 4 3 3 1 3 3 1 5 8 2 6 5 0 1 3 3 7 8 9 6 3 6 7 8 8 7 7 7 7 6 7 7 7
7 7 7 7 6 6 6 7 9 9 8 7 7 5 2 2 2 2 2 3 3 3 2 2 2 4 2 2 2 2 4 5 6 7 7 7 5 3 4 4 3 3 4 4 4 4 6 6 4 2 1 2 5 5 3 3 4 4 0 3 2 2 3 6 3 3 2 1 0 1 3 4 4 6 5 2 6 6 7 8 8 9 8 8 7 7 6 6
9 8 7 7 7 6 6 7 9 8 7 6 5 2 1 1 2 2 2 4 5 3 3 2 2 3 0 2 2 3 4 6 7 9 9 7 5 4 5 4 3 4 5 5 4 3 6 6 1 1 3 3 3 5 4 2 4 4 1 2 4 3 2 3 4 3 1 3 2 2 4 6 6 5 4 2 6 6 8 10 9 9 8 7 6 6 7 7
10 9 8 7 7 6 6 7 8 7 6 5 3 1 3 3 2 3 5 7 7 6 4 1 2 2 3 3 3 3 3 6 7 9 10 7 6 6 5 4 4 5 5 5 4 3 4 4 2 1 3 3 2 5 3 5 4 3 3 2 3 3 3 4 4 2 3 1 3 3 4 11 12 10 6 5 6 7 10 10 8 8 8 8 7 8 8 9
11 10 9 8 7 7 6 6 7 6 5 4 1 5 5 4 3 2 5 5 4 3 1 3 3 4 4 4 2 3 5 7 8 9 10 8 7 7 6 5 6 6 4 1 2 2 1 3 4 2 1 2 4 6 8 8 6 6 5 4 4 4 4 6 5 5 4 2 4 7 7 10 12 12 9 6 6 7 10 9 7 7 8 8 8 9 9 11
13 12 11 9 8 7 7 6 6 5 4 3 4 6 4 3 2 1 2 3 4 3 1 4 6 4 1 1 3 7 8 6 4 6 9 9 10 8 5 5 6 5 3 3 1 1 3 3 2 5 7 8 9 9 7 5 6 5 4 3 3 4 4 6 5 6 2 4 6 8 8 11 11 12 11 4 5 7 10 10 10 10 9 9 10 11 12 12
15 14 13 11 9 8 7 6 6 5 5 5 6 4 3 4 3 1 3 4 10 9 3 3 2 1 1 2 9 11 6 3 3 3 10 10 10 8 1 3 5 1 1 3 2 2 4 3 7 10 9 8 7 7 5 5 4 4 4 2 3 3 5 7 5 5 1 3 6 5 6 11 11 12 11 3 5 9 12 12 14 13 12 10 11 13 13 9
18 16 14 13 11 9 8 6 5 6 6 7 7 3 3 3 3 1 2 1 10 12 8 3 3 4 3 2 10 9 4 3 1 3 9 8 6 6 1 4 5 4 1 2 3 2 2 3 12 10 5 6 3 4 5 4 2 2 3 2 3 3 4 7 5 4 1 4 5 4 4 9 11 11 11 8 8 10 12 14 14 13 12 12 13 13 11 9
21 18 16 15 12 10 8 7 5 6 8 9 8 6 3 2 3 2 3 1 5 6 6 5 4 5 3 1 8 9 3 4 4 5 11 9 4 4 5 5 5 4 3 4 5 4 2 6 11 6 8 7 3 4 6 3 1 3 3 3 3 3 2 4 5 4 0 2 2 4 4 7 10 10 10 12 10 10 11 12 12 11 13 14 13 11 11 12
24 21 18 16 14 11 9 7 6 8 11 11 15 14 5 3 4 3 2 1 4 4 3 8 6 5 6 3 9 11 3 4 5 6 13 12 5 3 5 5 5 5 5 8 8 6 6 7 3 6 8 8 5 4 6 4 3 4 5 6 5 5 6 6 4 4 3 3 2 3 6 6 7 9 11 8 4 7 11 10 12 13 14 13 11 10 11 12
27 24 21 18 16 13 10 8 8 11 11 10 18 21 11 6 6 4 2 2 3 5 3 5 4 6 11 7 10 10 2 3 4 8 16 16 9 4 3 3 4 5 8 7 6 5 8 5 4 7 5 7 7 4 5 7 4 5 5 10 10 9 9 6 3 5 4 5 3 2 4 6 4 6 9 6 4 7 9 8 13 15 13 11 10 12 11 9
30 27 24 21 18 16 12 6 10 12 9 10 16 17 13 10 7 5 3 3 4 4 1 4 4 8 13 8 9 6 2 5 5 9 18 17 11 5 3 2 2 4 7 5 3 2 5 4 5 7 5 7 6 4 6 8 5 3 5 9 11 9 6 5 2 2 1 4 3 2 2 6 7 6 8 5 5 9 9 9 12 13 10 9 10 11 9 8
29 29 27 25 22 22 14 4 9 11 6 8 13 14 16 12 8 4 3 3 5 3 5 3 2 8 11 10 12 8 3 5 2 7 12 13 9 3 3 6 2 3 4 4 2 3 4 5 3 5 5 6 6 4 6 8 8 4 5 6 8 8 7 6 5 4 3 3 3 2 2 4 7 7 6 5 6 10 12 13 14 13 12 10 10 10 9 10
25 30 29 27 27 28 18 8 11 13 7 4 6 16 19 13 8 3 3 1 4 3 5 2 2 5 4 8 13 7 2 3 5 4 4 8 7 2 3 9 7 7 6 6 5 4 4 8 8 8 4 4 6 5 7 10 6 5 3 6 6 6 5 4 4 3 1 2 4 4 1 3 8 6 3 1 5 9 13 15 16 15 12 10 10 10 9 9
17 27 31 30 29 30 22 14 11 12 11 4 3 19 20 12 7 4 3 3 3 1 2 2 3 2 3 6 7 2 2 1 2 3 2 5 4 3 3 7 6 8 6 5 6 3 2 6 8 9 6 6 5 2 7 11 5 4 6 7 6 5 5 5 4 3 2 1 6 6 3 3 7 4 1 2 2 8 12 12 12 12 11 9 9 9 7 7
10 19 31 31 29 31 24 17 15 12 8 2 6 21 18 8 4 4 3 4 2 1 1 2 3 3 7 9 3 1 2 1 1 2 3 1 1 4 1 3 5 5 2 4 3 3 2 1 2 4 4 5 4 2 2 7 6 5 6 6 6 6 5 3 3 4 1 3 7 9 9 6 6 3 4 3 5 8 9 9 9 9 9 8 7 6 6 6
8 11 26 33 33 33 22 14 21 18 6 4 12 18 12 3 2 5 7 2 0 1 2 2 2 5 13 14 6 2 2 1 1 5 4 1 2 3 1 2 4 4 1 5 4 3 3 1 1 2 2 4 6 5 3 2 4 5 4 5 3 4 4 4 4 4 1 6 5 6 6 7 7 6 4 6 7 8 8 8 9 9 9 8 6 5 5 5
9 7 18 33 36 34 25 17 25 23 10 10 14 10 5 3 2 6 6 2 0 4 4 4 3 7 12 12 9 7 6 2 3 7 7 5 5 6 6 6 5 3 3 7 4 2 2 4 3 3 1 4 6 4 4 3 2 4 4 6 3 2 3 3 3 0 3 7 4 1 3 4 9 8 7 10 11 12 10 9 9 9 10 8 5 5 4 4
11 8 12 27 35 36 31 24 24 23 17 16 12 3 2 6 7 10 8 3 2 2 3 3 3 7 11 9 6 6 4 2 5 6 4 5 7 8 7 6 6 4 3 6 3 1 3 5 3 1 2 3 7 7 2 1 4 5 5 6 5 2 0 3 4 2 4 5 3 1 2 3 5 5 11 16 16 14 10 8 9 9 10 9 6 4 4 4
12 11 11 18 32 37 35 28 23 26 24 17 9 3 3 6 7 11 12 8 2 2 2 3 4 6 9 5 4 6 4 3 6 6 4 6 6 7 7 7 7 3 3 4 3 5 5 6 5 7 3 6 11 9 5 6 5 5 4 5 5 6 4 4 4 4 5 4 3 2 2 3 3 3 8 11 10 10 9 7 7 9 9 6 6 4 4 5
13 14 13 14 28 37 36 29 26 30 26 13 6 6 8 8 6 7 11 9 2 3 3 2 6 6 4 2 2 5 5 2 5 5 4 7 7 8 8 8 10 6 5 5 2 3 5 7 6 4 1 9 12 5 5 7 3 2 2 4 4 6 5 3 3 4 2 3 4 3 4 5 4 6 8 7 7 8 8 8 9 12 7 3 5 6 5 6
13 14 15 15 23 35 35 28 29 35 25 10 7 7 9 9 6 5 5 6 5 4 5 3 4 4 6 3 2 5 3 2 5 4 3 4 4 7 8 8 12 12 9 8 3 2 3 5 4 1 2 5 6 3 4 3 4 2 3 4 4 4 5 2 3 1 3 3 5 3 5 5 3 8 9 7 10 9 7 7 10 12 6 1 6 7 6 7
12 11 13 15 19 28 34 31 33 35 19 7 10 10 8 8 6 5 3 3 4 6 7 4 3 5 7 5 4 7 4 2 4 5 4 3 3 6 9 6 9 16 15 9 3 3 5 3 4 2 1 3 1 4 3 3 4 5 4 6 2 2 2 2 2 3 3 4 5 2 6 5 2 6 5 2 9 11 9 9 11 10 6 6 9 7 6 7
12 9 10 18 21 23 30 33 33 25 10 5 9 9 8 9 8 7 5 3 5 7 7 6 5 5 6 7 5 7 6 4 5 6 4 4 5 8 12 7 6 15 17 7 1 3 4 2 4 2 3 3 3 4 2 5 3 5 4 5 4 2 1 2 2 2 1 4 6 3 4 4 6 6 2 4 10 11 12 12 10 11 9 9 9 7 7 7
11 6 6 15 21 21 29 35 29 15 7 8 9 7 7 11 10 8 5 3 3 7 9 8 4 3 4 7 5 5 7 7 8 7 5 5 5 6 13 10 5 10 13 9 5 2 2 3 3 2 1 1 3 2 4 2 2 3 2 3 2 2 3 3 3 3 3 3 4 3 3 4 7 7 8 11 12 12 12 10 9 12 11 9 9 7 6 6
5 4 3 7 14 21 31 31 19 9 7 8 10 8 8 9 8 8 8 4 2 4 7 8 5 4 5 6 4 5 7 6 7 7 5 6 6 5 8 11 5 5 9 11 8 2 2 3 3 2 2 1 2 4 8 10 7 3 4 5 3 1 2 1 1 2 4 2 2 3 6 7 5 5 10 12 11 11 11 9 9 10 10 9 9 7 6 6
3 5 3 7 15 24 28 19 8 7 7 6 9 10 8 6 7 10 12 6 2 3 3 3 5 6 6 6 4 5 6 5 7 7 4 6 7 5 6 10 8 6 7 7 8 5 3 3 4 2 1 4 5 5 6 9 9 7 7 8 9 6 4 3 3 2 2 2 4 2 8 11 4 4 8 8 7 9 10 9 8 8 9 9 7 5 6 7
3 5 3 9 25 31 19 6 5 6 5 7 10 9 6 4 6 9 10 6 3 3 1 1 3 5 5 7 7 6 6 5 7 7 5 8 9 6 5 8 11 12 10 8 10 9 4 3 3 3 3 6 6 3 2 4 3 3 3 5 6 5 5 6 5 4 2 2 2 3 5 10 2 3 4 4 4 6 6 8 7 8 8 7 6 5 6 6
4 6 4 6 29 34 12 4 8 6 4 6 8 6 3 3 4 7 8 8 6 4 2 2 3 4 4 5 6 7 7 6 8 10 7 7 9 7 6 8 11 12 9 6 6 4 3 3 3 2 2 3 4 4 2 1 3 2 2 2 5 6 7 5 5 4 3 5 3 3 5 8 2 0 2 2 2 3 5 7 7 7 8 6 6 6 5 6
3 6 5 5 25 28 10 5 9 7 7 7 7 7 3 2 5 8 9 11 10 6 6 6 5 5 4 2 3 7 10 7 7 11 9 6 6 7 8 11 11 11 8 6 6 5 4 4 4 2 2 3 4 3 2 2 3 3 3 4 7 11 8 3 1 3 2 8 9 5 8 7 2 3 3 3 3 3 7 7 5 6 8 6 5 5 5 6
3 5 2 6 16 16 7 7 9 8 9 11 10 10 8 4 5 10 11 11 9 7 7 7 5 4 1 1 0 2 6 7 7 8 7 5 4 4 8 12 12 11 9 7 8 8 6 5 6 6 7 9 8 6 5 4 3 2 4 7 9 11 12 7 2 3 7 7 10 9 12 6 2 5 4 5 5 4 7 7 5 6 8 7 6 5 5 5
3 4 3 4 7 8 6 6 8 7 8 11 9 9 12 9 4 7 9 8 7 8 6 4 4 5 3 5 5 4 5 7 5 3 4 6 4 2 5 11 13 14 12 7 6 6 3 4 9 11 13 15 11 5 5 9 7 6 9 11 11 11 13 10 6 8 8 3 5 13 14 10 8 4 4 6 5 6 7 6 6 6 7 8 7 5 4 5
4 4 3 3 3 5 7 7 7 7 8 10 8 6 13 15 8 5 8 8 9 10 7 2 4 7 9 10 9 8 9 9 7 6 7 7 3 3 2 7 11 16 14 8 5 5 3 4 11 15 18 20 16 8 8 12 12 14 13 13 13 13 13 13 13 13 7 4 10 13 9 14 17 8 7 10 7 6 7 8 8 7 7 8 5 4 5 6
4 4 2 2 2 4 8 9 9 9 9 9 7 7 13 17 14 9 7 7 9 10 8 4 7 12 14 15 12 9 10 11 10 12 12 9 5 1 1 3 8 12 10 7 5 5 4 6 11 14 18 21 20 12 10 12 12 13 15 16 17 17 16 18 22 18 9 7 18 13 11 16 21 10 12 13 8 8 10 9 7 5 6 6 5 5 7 6
4 3 3 3 3 4 5 5 3 6 11 11 8 10 13 15 17 13 7 6 8 10 11 10 13 17 17 15 12 9 11 11 12 15 14 11 7 4 4 5 5 5 6 6 5 3 4 8 11 13 15 20 22 15 12 13 10 9 14 18 18 20 23 24 25 21 14 14 22 17 11 19 19 9 11 11 9 11 9 4 3 5 8 8 7 8 8 7
4 2 2 2 4 5 4 4 1 1 6 9 7 9 12 14 17 14 10 10 9 9 13 17 19 18 17 15 13 14 16 15 17 19 15 13 10 7 8 7 3 2 5 6 3 1 3 6 6 8 9 16 21 14 11 13 12 10 12 14 17 21 24 24 21 16 13 16 23 19 16 19 13 6 8 8 8 8 6 5 8 9 10 9 8 9 9 9
9 6 3 2 3 5 5 6 5 3 4 5 5 6 9 13 16 13 10 13 14 12 15 21 22 16 13 14 15 19 20 19 22 20 13 13 12 8 7 6 4 5 6 6 3 2 4 4 1 3 5 13 17 12 10 10 8 8 9 13 19 21 19 17 15 14 15 18 20 16 15 18 10 6 6 7 7 8 10 11 11 10 10 10 10 11 11 11
12 9 7 3 4 5 5 5 7 7 5 5 7 8 10 12 13 13 10 9 14 16 15 20 23 15 11 16 21 25 24 21 20 12 5 7 6 3 3 4 4 6 7 6 4 3 5 6 3 4 7 13 11 8 9 6 3 6 13 19 24 20 13 11 13 17 19 17 15 13 15 20 14 7 7 7 7 10 12 12 12 12 11 11 10 11 12 12
Wind_Direction
197 230 258 266 255 262 288 298 280 254 230 219 226 223 221 221 219 218 224 227 231 240 250 262 283 296 304 312 317 327 332 324 317 294 264 250 250 248 267 303 284 14 5 357 1 11 24 18 1 6 36 68 12 339 9 24 64 55 80 94 126 174 193 179 179 194 173 192 206 213 181 137 163 240 172 58 42 65 52 19 336 339 1 18 87 125 144 155
195 223 240 248 260 277 301 315 314 285 235 227 232 222 218 221 221 221 225 232 236 243 251 263 282 289 304 316 318 330 333 327 326 299 288 270 263 247 238 243 115 27 13 13 15 28 36 343 335 9 40 51 349 344 23 13 67 84 108 96 182 200 201 187 179 190 181 180 184 192 168 152 178 173 138 172 315 55 106 350 349 0 357 52 115 135 148 157
199 211 211 231 296 309 304 312 319 309 276 244 240 229 219 221 222 223 226 233 236 242 253 262 277 286 308 315 322 336 339 358 15 306 298 276 230 189 177 150 101 49 31 22 16 22 29 298 318 23 45 53 354 355 36 14 46 135 107 85 226 213 224 219 184 198 222 177 156 180 163 158 214 165 142 179 176 188 189 209 11 248 228 194 175 153 154 159
201 195 206 253 305 307 309 312 310 313 311 292 256 231 220 220 221 225 227 231 236 242 251 261 278 290 311 317 330 336 356 48 36 258 117 119 135 136 134 119 86 60 36 24 24 18 19 336 22 55 61 43 340 15 47 354 31 112 103 148 215 173 183 222 191 210 223 164 153 146 115 160 244 177 158 146 141 258 243 217 195 203 200 187 204 175 162 163
200 201 202 248 288 302 308 301 300 307 308 310 287 240 221 222 225 228 230 231 236 242 253 271 286 299 316 325 336 333 17 58 264 228 137 157 136 130 122 101 73 61 40 31 32 33 42 49 55 48 52 44 348 25 36 310 70 69 61 187 198 140 129 229 199 205 155 124 112 114 140 194 203 148 162 152 171 232 230 225 211 201 183 177 184 175 167 166
201 209 208 231 279 287 289 290 294 300 301 309 305 275 241 231 232 232 234 238 241 245 259 281 300 308 323 338 339 345 68 93 260 185 162 156 137 132 115 89 62 47 32 38 33 44 50 31 51 50 41 52 359 44 321 308 52 95 348 293 208 176 195 232 176 192 144 115 128 157 185 146 98 283 196 171 210 224 225 250 228 208 179 169 163 164 169 172
213 215 229 239 268 270 288 301 295 295 299 307 309 299 271 248 243 237 237 248 249 249 265 293 308 306 332 350 346 25 84 243 249 168 172 155 145 137 112 81 56 29 12 38 31 57 68 36 61 107 76 69 245 100 332 317 37 90 127 315 206 182 211 234 121 174 140 137 186 175 124 129 172 230 71 206 238 245 289 298 199 173 159 156 154 165 177 177
231 219 232 249 267 268 295 313 308 308 304 303 307 298 280 265 251 238 235 253 254 258 278 303 308 312 340 346 65 30 357 253 187 169 175 164 159 145 120 67 40 13 36 48 34 106 91 46 86 144 83 91 171 109 340 338 30 71 140 236 252 176 255 291 57 51 147 146 171 120 136 222 195 193 312 244 249 272 351 61 120 135 139 153 163 171 176 175
248 235 231 240 258 271 287 314 317 313 309 308 307 296 284 269 249 247 227 252 256 260 289 316 305 320 339 35 93 56 277 221 172 175 176 174 170 157 147 60 34 8 60 54 42 95 96 88 189 180 152 180 127 80 350 30 344 179 147 188 210 350 317 333 149 257 235 194 104 126 243 275 244 239 277 258 241 185 86 90 115 133 143 165 173 176 176 175
279 289 274 251 252 270 275 295 309 313 314 307 304 296 284 252 204 216 207 229 240 254 292 308 305 337 329 68 92 135 259 194 181 182 176 182 179 175 177 43 9 7 63 59 52 69 92 171 186 148 142 127 84 58 0 83 176 165 130 161 127 340 312 157 192 255 263 269 180 175 234 279 333 305 253 272 210 143 105 102 135 147 162 177 178 187 184 184
293 309 311 289 260 268 274 280 295 313 318 310 304 289 276 240 190 199 198 195 201 224 258 300 322 333 317 81 117 199 250 183 188 185 182 187 187 200 222 320 320 33 75 71 69 72 94 160 157 125 122 110 88 21 352 126 118 83 97 247 330 343 308 206 217 258 171 232 189 168 223 283 359 263 235 261 164 154 129 139 164 162 178 184 183 196 194 199
290 302 313 305 273 281 294 282 282 302 317 318 311 294 273 224 203 202 190 181 184 201 218 309 350 303 340 52 152 219 243 194 195 189 188 191 190 213 248 321 5 65 88 86 88 82 79 133 124 103 294 145 122 15 82 111 69 39 58 333 309 355 334 263 246 239 174 194 184 153 280 285 232 223 248 280 155 136 132 162 184 183 195 195 197 205 206 211
286 292 305 307 292 299 310 295 284 292 306 317 320 312 286 233 215 208 193 181 176 178 186 187 294 34 67 278 237 235 242 211 202 197 192 196 197 210 224 183 94 60 78 91 96 84 62 56 111 114 119 109 123 238 99 47 38 354 46 43 317 359 333 276 24 189 166 178 181 151 268 271 247 243 259 254 152 131 148 192 203 201 211 210 210 212 216 216
277 282 291 303 303 308 313 303 289 290 305 318 325 321 294 241 215 213 199 179 172 172 178 168 173 96 94 242 257 263 254 232 208 203 195 200 196 187 187 164 100 69 79 86 88 72 52 68 98 102 95 90 130 103 39 11 20 12 16 36 5 0 284 288 0 139 156 187 155 130 228 265 267 267 272 229 173 159 187 212 210 214 222 218 220 217 222 220
266 273 279 291 300 309 312 310 303 299 310 320 321 317 290 232 212 221 203 181 162 158 173 168 171 119 80 274 275 281 253 230 203 201 194 192 180 167 164 145 115 95 87 82 89 72 58 83 84 76 47 18 59 75 29 354 14 34 318 309 346 180 271 304 294 163 159 286 41 124 224 271 271 274 289 228 184 183 204 220 216 220 223 219 226 220 226 234
258 263 269 276 288 301 309 315 313 307 311 315 312 309 260 207 199 187 188 169 142 136 134 135 156 123 104 270 286 288 242 206 191 192 186 179 168 146 139 132 97 89 90 77 94 80 53 60 61 59 124 52 68 86 51 11 342 359 108 249 273 186 279 316 309 218 178 118 1 190 230 277 281 289 325 153 182 198 220 235 228 226 228 222 226 224 228 238
252 255 261 266 276 288 302 311 311 312 313 307 302 284 177 169 178 174 153 127 116 101 89 115 140 113 121 266 265 268 218 181 184 182 177 172 163 145 135 117 73 81 83 67 76 57 30 40 46 338 49 55 88 96 62 335 284 316 10 233 242 202 220 296 306 287 103 117 218 224 235 254 265 286 315 193 186 194 223 239 234 229 232 229 228 228 229 226
248 252 253 258 266 278 295 305 310 315 307 297 290 161 127 115 134 147 141 128 102 69 52 55 91 88 263 249 208 219 163 164 174 171 170 166 158 145 125 101 89 83 59 38 39 34 14 22 56 44 23 18 80 105 142 223 212 198 199 209 252 235 215 253 285 253 138 110 234 204 247 259 266 274 262 222 190 193 225 236 239 237 233 233 229 227 228 224
245 248 247 252 257 266 281 294 311 312 293 287 195 133 111 92 86 123 146 142 122 104 190 220 155 144 225 238 175 119 116 142 156 164 165 157 150 131 102 89 88 83 75 58 350 17 56 46 62 97 231 220 187 170 190 204 169 163 178 159 188 222 247 239 252 257 190 155 237 219 234 254 263 271 260 229 191 206 238 247 251 247 235 232 229 230 227 224
244 244 243 245 245 255 265 280 308 307 276 240 154 128 114 98 60 343 212 207 214 186 182 219 186 151 214 259 134 120 116 117 130 162 162 159 149 123 82 60 59 59 98 163 210 21 94 113 180 210 213 202 200 200 188 162 130 118 129 137 190 205 268 260 253 287 227 161 246 229 231 255 258 265 266 234 175 220 245 250 250 243 236 232 227 230 226 226
245 241 241 240 236 243 249 264 293 293 260 208 167 139 161 164 132 232 225 247 257 246 266 295 224 217 308 160 153 142 124 80 25 159 162 163 150 137 99 50 86 77 252 174 157 35 80 143 226 228 210 192 197 197 157 122 108 89 121 176 264 215 252 259 242 299 315 169 263 251 236 260 258 260 269 234 173 227 233 233 242 238 235 235 229 232 228 224
246 241 240 236 232 232 237 250 266 273 252 208 189 198 241 192 134 127 150 223 267 245 231 290 330 280 282 158 170 156 95 84 1 217 174 158 149 168 174 89 134 181 232 126 109 34 58 220 241 233 161 124 131 163 149 148 155 95 117 163 264 249 273 276 268 317 14 177 262 282 253 263 262 260 263 244 219 236 233 226 235 236 235 236 230 232 226 214
247 241 237 234 229 225 229 236 245 258 237 209 203 209 234 202 136 84 112 123 290 255 209 211 235 239 239 235 191 173 118 155 180 220 185 157 149 183 143 125 152 145 147 171 156 142 160 247 248 206 133 133 123 116 128 130 209 201 167 167 243 255 273 275 288 324 314 197 268 295 290 274 269 267 260 246 234 247 251 239 240 238 235 238 234 231 220 213
245 241 236 232 224 218 220 222 229 241 231 224 224 215 190 153 155 123 114 47 295 279 225 205 205 200 198 203 183 177 185 185 168 193 184 161 130 157 155 152 138 130 185 195 173 175 214 250 249 134 149 171 161 124 133 153 241 243 203 192 219 230 219 230 284 328 337 340 354 328 307 280 260 261 258 260 271 268 260 251 252 248 240 242 248 242 223 215
243 240 235 227 220 213 205 206 222 230 226 233 233 219 192 158 155 138 115 12 283 286 291 209 199 206 200 175 166 171 159 230 212 186 178 167 148 142 173 156 123 173 205 191 173 218 248 249 108 118 158 168 161 168 173 175 210 276 229 203 212 218 225 238 319 2 354 328 339 14 301 281 282 266 257 281 320 277 261 250 251 253 248 242 246 245 229 216
240 238 231 222 215 199 187 207 226 218 213 235 238 218 190 168 149 142 109 33 276 271 239 182 177 196 193 164 152 143 87 250 238 166 169 174 166 134 147 158 85 194 192 162 176 236 248 235 118 124 147 153 166 211 219 181 163 272 246 206 210 206 211 227 184 81 265 261 293 67 209 273 302 276 248 257 273 268 266 258 253 256 255 240 238 242 229 214
237 235 227 218 208 189 179 204 205 186 187 256 247 207 184 167 147 152 100 15 273 202 149 195 178 173 181 165 152 137 192 229 131 147 168 175 180 97 136 173 121 193 169 123 233 245 192 201 147 124 122 140 172 222 221 169 146 240 249 181 184 185 196 207 178 187 234 262 314 26 139 267 286 265 248 234 248 271 272 265 264 260 253 245 242 239 225 214
233 232 224 217 208 196 192 189 173 174 190 286 247 189 176 163 155 143 118 238 272 149 141 221 170 147 149 160 156 141 232 192 125 186 181 159 180 60 155 193 172 182 173 148 213 261 168 187 191 174 157 174 196 213 183 156 160 245 213 134 145 160 169 155 143 190 289 11 301 298 113 258 270 260 301 318 241 264 266 260 263 262 260 253 247 241 229 219
235 232 225 220 210 201 203 202 184 192 211 276 207 178 167 160 163 87 100 205 260 140 144 135 142 134 81 147 167 123 30 51 128 218 72 140 182 56 170 197 158 169 193 191 209 247 180 199 194 171 176 206 209 218 172 164 189 213 133 98 77 80 81 81 109 133 52 0 251 245 168 233 267 228 150 28 223 246 256 257 259 263 268 259 251 251 235 217
243 233 227 217 202 195 198 210 215 205 202 279 177 168 158 150 146 116 184 216 231 219 179 130 165 165 137 149 190 347 94 40 10 106 60 120 96 35 144 151 96 135 221 292 246 242 287 286 182 164 182 192 150 79 171 168 162 139 109 68 45 36 41 45 56 84 46 270 241 227 191 198 269 251 184 205 211 226 241 258 269 274 278 266 259 260 233 210
246 237 226 212 198 193 189 207 217 201 169 165 166 156 148 111 89 173 203 217 346 199 135 152 174 143 154 162 178 195 133 46 138 146 143 164 98 52 92 114 78 84 338 288 278 308 330 335 235 228 175 131 101 70 21 76 121 113 94 80 61 348 8 17 0 48 229 253 243 234 184 179 239 259 232 242 252 244 227 236 260 271 278 275 275 270 234 208
250 249 228 213 203 199 197 213 212 194 155 147 160 149 147 158 188 218 215 79 281 212 166 178 194 167 170 171 175 174 154 137 179 169 163 160 170 183 192 186 159 120 244 238 242 335 280 231 261 309 212 144 117 94 30 23 92 103 107 109 102 323 349 342 310 61 231 257 261 227 117 189 239 251 254 258 261 254 230 220 238 254 267 274 286 278 235 197
264 256 242 218 208 203 206 217 212 187 155 144 152 122 112 172 200 216 214 186 206 234 152 141 155 163 164 166 181 171 142 166 179 177 169 154 179 206 222 220 181 149 197 200 185 196 263 287 286 199 255 186 156 164 172 185 182 163 152 143 142 153 305 276 269 270 263 271 279 212 159 249 267 256 241 239 242 248 242 225 227 241 255 267 289 277 221 202
278 257 261 232 215 211 209 214 206 176 157 150 150 130 148 191 207 207 217 226 236 8 41 96 99 138 160 170 197 167 151 220 179 159 167 155 173 210 224 234 214 143 100 150 175 184 215 277 214 180 203 188 184 193 169 136 163 190 156 139 159 160 169 224 223 230 260 288 297 259 191 203 211 248 244 238 250 265 267 256 244 249 247 252 283 269 212 215
280 258 267 251 223 215 209 210 199 169 156 152 152 163 183 203 212 203 218 227 215 31 22 70 91 120 186 270 285 182 163 217 178 148 171 175 189 204 196 207 203 169 135 176 212 168 202 263 239 208 177 172 184 196 119 107 142 229 109 118 190 182 171 222 211 176 191 300 290 229 220 216 211 271 272 257 272 274 271 281 274 265 250 208 252 245 216 222
286 266 264 254 228 215 207 205 191 170 160 152 157 182 201 206 199 187 211 217 195 128 100 90 82 126 200 229 262 214 172 106 152 154 201 207 225 210 198 209 197 186 184 186 196 153 178 275 280 348 21 176 185 175 125 135 178 166 133 178 208 165 151 202 272 56 74 276 264 197 239 286 313 281 267 244 255 264 276 282 262 260 270 254 246 234 219 225
302 279 256 248 235 217 209 202 184 172 166 158 174 190 205 212 193 161 189 205 171 141 135 174 180 161 189 197 207 206 184 109 155 173 191 195 244 213 203 226 199 195 201 187 195 202 168 254 298 93 177 255 221 121 69 24 124 128 180 202 158 77 100 122 259 343 42 257 270 213 233 268 263 269 291 228 241 256 264 257 252 264 281 269 254 229 216 225
310 287 256 247 237 220 209 197 178 169 170 175 193 198 195 211 206 177 179 157 146 163 182 210 200 170 182 192 200 189 178 177 176 187 189 182 238 210 190 210 210 203 207 185 199 248 164 220 311 54 184 287 4 110 71 357 71 131 183 183 125 134 212 125 176 242 200 252 286 278 248 241 205 226 270 208 220 233 244 246 252 264 257 253 259 238 214 219
307 289 269 245 232 221 207 189 173 171 187 185 201 210 198 211 212 193 178 146 160 187 203 217 194 155 186 182 172 169 185 193 174 180 193 186 233 217 182 192 213 204 202 187 199 237 140 197 269 333 230 315 16 144 184 224 44 67 116 143 116 153 177 164 165 173 175 236 284 304 301 250 213 206 201 209 212 209 222 234 241 250 246 242 251 238 210 209
297 265 258 222 219 213 198 183 172 184 201 192 201 203 201 205 201 205 202 172 163 204 211 217 183 158 192 187 172 175 192 200 178 186 209 193 220 248 192 184 180 176 181 186 200 191 100 214 235 320 334 165 194 213 191 180 170 161 162 171 186 130 108 167 197 136 139 173 231 297 296 263 228 196 198 208 212 203 205 214 227 244 248 243 243 228 202 200
263 260 237 188 197 191 182 177 180 197 199 206 210 207 208 193 170 201 209 178 153 240 222 206 191 186 185 181 196 193 183 188 183 190 224 211 211 240 209 181 160 139 140 168 204 204 185 204 183 169 223 202 221 245 205 189 185 181 186 192 188 171 146 173 238 217 131 178 188 195 277 269 236 184 201 201 207 213 206 201 223 250 251 254 255 223 203 199
239 252 234 185 185 174 164 183 204 194 204 206 211 212 198 164 157 191 202 184 199 251 324 38 212 209 183 179 197 186 171 186 189 190 220 220 212 221 220 187 162 151 147 168 203 201 153 117 156 189 220 219 238 276 230 196 166 148 201 201 175 167 163 168 212 220 167 230 189 124 271 277 273 164 207 207 223 249 233 197 212 251 254 261 263 221 207 209
244 248 295 209 182 169 158 236 201 198 237 221 228 227 166 142 172 177 185 192 203 211 218 219 200 209 210 182 179 178 180 192 193 199 219 224 220 223 208 182 161 156 160 177 200 191 111 121 183 246 319 308 307 333 4 133 124 138 233 171 156 190 189 170 190 181 172 218 176 114 261 268 312 1 242 241 247 294 279 223 208 249 269 270 257 232 206 203
263 248 300 241 190 176 168 222 205 211 219 220 239 229 213 220 188 180 180 188 196 196 210 220 196 199 223 147 144 186 194 200 202 208 216 218 227 220 188 177 172 170 180 187 179 173 173 181 182 192 291 320 325 316 283 218 177 197 216 184 190 196 183 166 107 107 221 221 169 167 249 244 263 319 340 344 337 324 279 256 217 238 265 270 260 249 218 195
269 243 238 224 208 201 202 207 209 218 208 214 226 213 217 234 192 199 198 187 193 192 204 219 190 158 165 121 291 215 202 216 223 215 216 226 255 241 188 181 183 192 209 204 179 171 172 181 178 186 219 229 225 226 218 183 154 205 207 194 201 191 180 192 194 179 236 219 161 196 242 245 332 322 324 335 330 300 271 268 246 235 255 269 263 251 228 197
256 247 203 188 207 225 245 225 215 223 209 210 218 207 212 219 204 205 203 194 201 200 209 224 159 144 178 207 227 252 240 243 248 234 225 222 239 273 196 183 187 204 216 206 177 161 137 181 190 193 215 228 232 227 148 132 148 210 208 190 196 196 188 193 206 215 219 177 183 221 236 257 275 269 265 276 268 256 264 274 268 254 254 259 254 246 229 206
244 244 209 191 192 213 237 242 225 222 210 200 196 190 205 214 217 202 196 200 202 201 215 227 154 176 197 199 211 227 229 238 252 248 238 226 236 310 222 187 198 211 210 197 178 149 116 197 202 203 218 230 237 227 158 150 176 203 201 188 193 196 188 193 215 218 170 133 244 231 200 247 256 220 215 248 239 241 257 251 249 248 247 251 240 218 220 214
236 252 226 220 245 207 219 237 234 227 222 207 192 191 202 209 213 205 192 201 203 197 204 211 196 203 204 196 199 213 215 219 236 240 239 236 231 264 269 217 222 217 202 194 193 154 151 207 207 209 223 234 238 225 183 181 193 197 195 193 194 192 190 201 218 220 172 182 248 237 166 228 251 220 206 228 215 218 234 230 227 233 244 244 211 202 220 217
227 260 270 247 250 235 231 250 252 233 229 222 208 206 205 206 211 209 187 187 206 199 196 211 216 213 213 202 192 203 206 201 218 228 226 227 215 190 213 234 238 216 182 190 209 165 176 212 208 209 224 238 241 227 194 198 206 198 198 197 193 193 199 207 216 220 206 217 247 248 217 240 253 221 204 217 208 219 235 231 221 230 237 231 210 218 230 221
220 236 263 258 249 248 257 267 286 263 234 227 220 215 210 208 209 207 192 188 197 192 194 213 221 214 211 204 197 215 215 202 214 221 210 207 209 198 212 217 188 154 176 192 215 210 211 218 204 195 216 242 244 228 196 201 208 209 211 207 203 203 205 211 215 216 214 229 244 250 253 260 257 184 189 211 207 227 252 246 233 232 233 231 221 226 232 228
241 257 270 306 271 239 240 246 243 255 246 227 227 228 223 218 209 205 205 198 196 192 193 209 220 217 209 204 205 222 224 214 223 228 203 196 207 206 216 214 154 148 179 190 184 156 196 216 157 135 200 244 244 219 191 199 210 226 232 221 215 213 209 209 212 209 207 220 238 246 253 258 245 157 182 209 197 223 240 236 238 241 231 226 226 228 230 232
236 253 253 262 270 240 231 238 232 236 242 230 229 235 238 236 217 207 215 208 201 204 201 206 215 214 205 206 210 220 225 222 227 231 185 187 227 263 240 215 170 165 170 176 180 159 181 206 205 164 208 246 242 182 163 162 166 235 236 226 220 217 210 207 216 220 212 209 223 230 237 247 244 204 210 219 201 221 236 234 237 243 233 222 224 228 231 232
Height
812 813 813 813 813 814 813 813 813 813 813 813 813 813 813 813 813 814 814 814 814 814 814 813 813 813 813 812 812 812 811 811 810 810 810 810 810 810 810 810 810 809 809 809 808 808 808 808 807 806 805 807 811 812 811 813 815 816 826 832 837 845 841 835 838 838 833 829 829 830 830 831 832 832 831 831 833 836 838 838 839 838 837 837 835 834 834 835
812 812 812 812 813 813 813 813 813 813 813 813 813 813 813 813 813 813 813 814 814 813 813 813 813 813 813 812 812 812 811 810 810 810 810 810 810 810 810 810 810 810 810 809 809 809 809 810 808 808 808 811 814 813 813 815 816 822 833 834 836 840 834 830 832 832 831 828 827 830 832 831 830 831 831 832 836 838 837 838 840 839 838 837 836 836 836 836
811 811 811 812 812 813 813 813 813 813 812 812 812 812 813 813 813 813 813 814 813 813 813 813 813 812 813 812 812 812 811 810 811 811 810 810 810 809 810 810 810 810 810 810 810 809 810 810 809 810 811 814 817 815 815 816 818 825 831 832 834 833 830 830 831 830 829 827 828 830 832 832 830 830 831 833 837 838 836 835 837 838 837 837 837 837 837 837
810 810 810 811 812 812 812 813 813 812 812 812 812 812 812 812 813 813 813 813 813 813 813 813 813 812 813 812 812 812 809 812 813 810 810 810 810 810 810 810 811 811 811 810 810 810 810 810 809 810 813 816 819 818 819 819 820 826 828 829 831 831 830 828 829 829 829 830 829 829 833 833 831 831 831 833 836 838 835 831 830 830 832 835 836 837 837 837
809 809 810 811 811 812 812 812 812 812 812 812 812 812 812 812 813 812 813 813 812 813 812 812 812 812 812 811 812 810 811 818 815 809 810 810 810 810 811 811 811 811 811 811 810 810 809 810 810 812 816 818 820 820 821 823 822 825 829 830 830 831 830 826 828 830 830 830 829 830 832 830 831 831 831 832 833 832 829 827 826 826 828 831 833 835 836 837
808 809 810 810 811 811 811 811 812 812 812 812 812 812 812 812 812 812 812 812 812 812 812 812 812 812 812 811 812 810 814 821 813 808 811 810 810 811 811 811 811 811 811 811 811 810 811 811 812 816 819 821 824 823 823 824 823 825 830 831 831 832 828 826 828 829 829 829 828 830 830 830 832 831 832 832 827 825 825 826 826 826 828 829 831 833 834 835
808 809 809 810 810 810 810 811 811 811 811 811 811 811 811 811 811 811 811 811 811 811 811 812 812 812 812 812 812 811 815 815 809 809 811 810 811 811 811 812 812 812 812 812 811 811 813 814 815 820 822 823 826 825 824 825 823 824 829 830 830 831 828 827 827 828 829 827 828 830 829 831 831 831 834 830 823 824 826 827 826 826 828 829 831 833 833 834
808 808 809 809 810 809 810 810 810 810 810 810 811 811 811 811 810 811 811 811 811 811 811 812 812 812 812 812 812 814 815 812 809 810 810 811 812 811 812 812 812 813 812 812 812 812 815 816 819 821 823 825 825 825 826 825 824 825 829 830 830 830 828 828 829 828 828 828 830 830 829 830 831 833 833 826 822 825 827 827 827 827 829 831 831 832 833 834
807 808 808 809 809 809 809 810 810 810 810 810 810 810 810 810 810 810 810 811 811 811 811 812 812 812 813 812 813 817 814 810 809 810 810 811 812 812 812 812 813 813 812 813 813 812 815 819 820 820 822 825 825 825 826 826 827 827 828 829 829 829 829 829 829 828 829 829 830 830 830 831 833 835 829 821 823 827 827 828 828 829 829 831 831 832 833 833
807 807 808 808 808 809 809 810 810 810 810 810 809 810 810 810 810 810 810 811 811 811 812 812 812 813 813 812 815 818 812 808 810 810 811 811 812 812 812 813 813 813 813 814 814 814 815 817 818 818 820 824 825 827 828 827 828 828 828 829 829 830 830 830 829 829 831 830 830 830 831 832 833 836 827 820 825 828 827 828 830 829 830 831 832 833 833 833
807 807 807 807 808 808 808 809 810 809 810 809 809 809 809 809 810 810 810 810 811 812 812 812 812 813 813 813 816 816 810 808 810 809 811 811 812 813 813 813 813 814 814 814 815 815 815 816 816 817 820 823 825 828 829 827 828 829 829 829 829 830 829 830 830 831 832 831 830 830 831 833 835 834 824 820 827 828 825 828 831 830 830 832 832 833 834 833
806 807 807 807 808 808 808 809 809 809 810 810 810 809 809 809 809 810 810 810 811 812 812 813 813 813 813 814 815 812 809 809 810 810 811 811 812 813 813 814 813 814 814 814 815 815 816 816 815 818 822 823 826 830 828 828 829 829 830 830 831 830 828 829 831 832 832 830 830 831 834 835 834 828 821 823 829 828 827 828 830 831 831 832 833 833 833 833
806 807 807 807 808 808 808 808 809 809 809 810 810 809 809 809 809 809 810 810 811 812 812 812 813 812 814 815 812 809 809 809 809 810 811 811 812 813 813 814 814 815 814 815 815 815 816 815 816 819 821 823 827 829 827 829 830 830 834 835 835 835 831 830 833 833 832 831 829 832 838 832 825 822 821 827 829 828 828 828 829 831 831 832 833 833 833 832
805 806 807 807 808 808 808 809 809 810 809 810 810 809 809 809 809 809 810 811 811 812 812 812 813 812 814 814 809 808 809 809 810 810 811 811 812 813 814 814 815 815 815 815 816 816 816 816 816 818 822 825 826 827 829 833 833 834 837 840 846 844 833 829 834 834 831 832 830 832 839 831 819 819 821 828 829 826 825 826 829 830 831 832 832 833 831 831
805 806 806 807 808 808 808 809 809 809 810 810 809 810 810 810 810 810 811 811 811 812 812 812 812 812 815 813 808 808 808 808 809 810 811 812 812 813 814 815 815 816 816 816 816 816 817 816 817 821 825 826 826 829 835 837 837 841 841 844 852 850 836 829 832 833 829 831 832 831 838 832 821 819 823 829 830 827 824 825 829 829 829 831 831 831 830 830
804 805 806 806 807 808 808 809 809 809 810 810 810 810 810 810 811 811 811 811 812 813 812 813 812 813 816 813 808 808 808 808 809 809 811 812 812 813 814 815 816 816 817 817 817 817 817 817 823 828 827 828 831 833 838 843 843 846 847 845 849 849 843 835 830 833 831 830 833 832 834 829 820 820 826 830 830 829 827 825 827 827 828 829 829 830 830 830
803 804 805 806 807 808 808 809 809 809 810 810 810 810 810 811 811 812 812 812 813 813 813 813 812 814 814 810 808 807 806 807 807 809 810 812 813 813 814 816 817 817 817 817 817 818 818 821 828 830 830 835 837 835 843 851 847 848 852 849 849 849 848 839 830 832 833 832 833 833 834 828 819 820 826 829 830 830 827 824 824 826 827 827 828 829 828 828
802 803 804 805 806 807 808 808 809 809 810 810 810 811 811 812 812 813 813 813 814 814 815 814 814 818 815 807 807 806 805 806 807 809 810 811 813 814 815 816 817 818 819 821 820 821 823 826 831 832 835 840 838 838 844 847 840 841 846 847 848 849 849 844 834 831 832 833 833 835 836 829 821 820 822 825 830 829 825 823 823 824 825 825 826 826 825 825
801 802 804 805 806 807 808 808 809 809 809 810 811 811 812 812 813 813 813 814 814 813 813 811 810 815 812 804 805 805 804 806 807 808 810 811 813 814 815 816 819 820 824 827 825 826 827 829 834 837 838 838 836 836 835 835 834 835 839 841 842 843 844 843 836 832 832 833 834 834 833 827 821 818 816 821 828 828 824 823 823 822 822 822 822 822 821 821
800 802 803 804 805 806 807 808 809 809 809 810 811 812 812 813 814 815 815 814 810 807 807 805 804 805 804 803 804 804 805 807 808 809 810 811 812 814 816 818 821 824 827 830 829 830 831 834 838 835 832 832 833 832 831 835 838 838 841 842 842 844 841 837 834 833 834 834 831 830 831 828 823 818 815 819 827 827 825 823 821 819 818 817 817 817 816 815
800 801 802 803 805 806 807 808 808 809 809 810 811 811 811 810 812 813 812 811 806 804 805 804 804 803 802 803 803 803 805 808 809 809 810 811 812 815 819 821 824 829 832 833 833 832 834 838 835 826 826 830 831 834 836 839 840 840 843 843 845 848 843 835 833 834 835 836 831 829 833 830 824 820 816 820 824 821 818 817 814 812 813 813 812 811 810 811
798 799 801 803 804 805 806 807 808 808 808 810 810 811 809 808 808 807 808 809 805 802 804 806 806 805 803 803 803 802 804 809 811 810 810 812 812 816 820 823 826 830 834 835 834 837 841 839 828 823 830 834 834 837 839 840 841 843 846 848 847 849 844 836 835 837 836 835 831 831 834 829 823 821 818 818 818 812 809 808 805 805 806 806 805 805 806 809
797 798 800 801 802 805 806 807 808 808 808 809 809 809 808 807 807 807 808 809 805 801 802 804 804 804 803 803 802 802 804 807 809 809 810 811 813 817 819 823 828 831 835 833 832 839 842 833 823 825 832 831 834 839 839 840 843 843 846 849 847 847 845 835 833 838 837 836 835 833 836 830 821 818 814 811 811 808 805 804 803 802 800 797 797 798 801 803
795 796 798 799 802 804 805 807 807 807 807 808 807 806 807 807 807 808 807 810 808 801 799 799 800 800 800 800 799 801 803 803 804 805 807 809 814 818 818 821 829 833 834 830 830 834 830 824 825 829 830 828 833 839 840 840 842 843 844 846 843 841 841 836 836 838 835 837 839 836 835 827 818 816 810 805 809 807 801 801 800 797 795 793 794 794 795 796
792 795 796 798 801 802 805 806 805 805 806 806 804 803 806 807 807 808 808 813 811 802 798 797 797 796 794 796 797 799 802 802 800 800 802 805 809 814 818 820 826 832 833 832 834 834 826 824 827 829 831 832 832 836 838 838 841 841 838 837 836 833 835 837 839 840 838 839 841 841 838 824 814 815 811 806 809 804 798 798 795 790 790 791 792 790 790 793
790 793 794 797 800 801 805 804 802 804 804 804 800 802 807 806 807 808 809 821 817 802 799 797 794 790 787 793 797 799 806 802 796 797 800 802 803 806 815 820 822 826 831 833 836 833 827 825 825 826 830 834 834 836 836 836 843 843 834 830 832 834 836 838 839 841 841 841 843 845 842 831 818 810 804 803 804 797 791 792 789 786 786 787 787 786 787 790
789 791 792 795 797 798 801 800 800 802 802 801 798 802 806 804 809 807 811 831 818 791 791 795 791 785 782 789 790 797 806 799 795 799 798 801 802 803 811 819 821 823 827 831 833 828 823 824 827 828 829 833 836 834 833 835 840 839 833 831 832 834 836 837 837 840 842 843 845 844 845 843 829 811 803 800 799 796 791 788 784 781 781 782 783 782 783 785
787 789 790 792 793 794 796 797 799 799 799 798 797 801 803 804 809 805 818 836 809 778 782 788 785 782 783 788 786 791 798 792 794 800 798 800 803 803 809 814 816 817 819 823 826 824 819 819 824 826 827 832 831 825 827 832 832 832 836 838 836 836 837 837 838 842 848 850 844 840 845 846 828 811 808 806 804 800 792 785 780 776 776 777 778 778 780 782
785 787 787 789 791 793 794 795 796 796 797 797 798 800 802 806 807 807 826 829 791 770 778 780 782 784 786 791 790 791 794 793 796 799 799 801 802 803 808 811 812 815 817 816 817 819 819 819 820 821 825 825 822 823 827 826 826 833 840 839 838 840 841 842 841 841 849 853 844 837 841 841 821 803 806 811 807 798 787 781 777 774 774 775 775 776 778 781
783 784 786 789 790 791 793 793 793 795 797 799 799 800 802 806 807 818 835 817 779 774 780 779 782 785 788 793 796 794 793 797 799 799 802 804 803 805 806 808 811 815 818 817 817 820 821 824 822 820 820 819 820 829 833 828 829 835 835 831 834 839 840 845 847 845 849 849 838 831 833 838 827 807 801 801 793 785 780 776 773 771 770 770 773 776 778 781
782 783 784 787 787 788 790 790 790 794 798 799 800 802 803 808 812 823 823 796 774 779 782 782 785 785 786 788 793 796 795 799 801 800 803 806 807 808 808 811 813 819 824 821 821 823 822 822 822 818 819 819 820 829 835 835 834 832 828 828 834 839 841 847 849 851 853 842 830 830 835 841 834 810 797 792 783 780 780 774 768 765 765 765 770 776 778 781
780 781 782 783 784 785 785 784 787 794 798 798 802 802 802 812 819 814 799 782 777 778 776 780 785 785 785 783 786 792 793 797 800 798 800 805 808 807 805 806 809 819 826 821 822 825 821 818 819 818 820 818 816 825 835 837 835 831 828 832 841 848 851 850 851 856 854 840 835 841 839 836 825 802 792 790 781 776 778 776 771 766 764 764 769 776 780 783
779 779 780 781 782 782 782 783 787 793 796 798 802 802 806 816 814 799 786 777 775 774 772 775 779 782 785 785 788 790 790 794 798 798 798 802 807 806 802 801 802 807 813 817 824 826 821 819 819 817 817 814 810 817 827 831 833 830 827 831 840 852 858 853 853 856 848 835 839 847 839 828 814 792 783 781 772 768 770 775 776 771 769 769 772 777 779 782
777 778 778 779 779 779 781 784 786 789 794 797 801 807 814 815 801 790 784 773 770 775 776 777 781 785 785 784 787 787 789 795 797 797 799 802 808 808 804 803 803 802 807 817 823 823 820 814 811 810 808 807 805 805 809 818 828 827 823 826 830 838 842 839 839 838 834 831 838 844 833 815 798 782 777 777 774 772 770 772 776 774 774 775 776 777 778 780
775 776 776 776 777 777 779 782 784 788 791 794 803 811 812 804 793 791 785 772 770 776 779 780 783 789 789 788 788 786 785 792 797 799 800 801 802 801 799 798 800 801 804 811 814 818 819 807 800 803 802 801 802 801 803 813 824 829 828 827 826 824 822 826 836 838 839 840 837 833 821 801 788 778 775 777 774 772 771 772 772 768 770 776 776 775 776 778
773 774 774 773 772 774 778 780 781 785 786 791 805 810 799 786 782 784 778 770 770 775 780 784 784 789 792 790 791 789 785 789 796 800 801 800 797 794 793 789 790 793 792 797 804 811 814 808 804 807 804 803 805 802 804 807 814 827 831 825 824 824 818 823 840 849 852 843 824 815 808 797 790 778 768 771 768 765 769 770 765 762 767 772 771 771 774 775
772 772 771 769 769 771 775 777 779 782 783 788 796 793 784 777 772 773 772 768 769 771 775 780 779 782 788 788 789 789 786 788 794 797 797 800 794 787 788 784 782 785 780 782 792 795 798 801 807 809 805 808 811 806 807 809 810 821 826 819 821 827 824 825 836 843 851 844 820 809 804 796 793 781 768 771 770 766 766 763 759 761 765 765 763 768 773 774
771 771 767 763 766 769 772 775 778 782 784 788 788 779 775 774 766 765 766 764 766 768 768 771 771 774 780 784 785 786 785 786 793 795 793 797 787 773 778 781 777 779 775 777 785 788 789 795 807 816 810 809 811 806 809 814 813 814 814 812 817 823 826 832 836 834 839 839 820 809 807 798 791 779 766 766 766 761 759 760 759 759 758 758 757 763 771 774
772 771 764 757 761 766 769 773 776 780 782 785 785 776 768 766 762 761 763 762 763 765 765 763 765 772 776 777 779 783 784 782 788 792 787 789 782 766 767 771 771 776 776 778 784 786 788 791 802 816 814 810 811 808 810 814 815 815 814 815 816 817 821 826 830 828 829 829 819 808 800 786 777 770 758 755 755 749 749 755 756 753 753 754 754 757 766 771
772 770 760 753 757 762 766 771 773 776 774 772 772 767 759 759 761 760 759 760 761 761 761 759 761 767 771 773 775 777 780 780 784 787 780 779 776 766 764 765 768 775 777 779 782 783 788 790 797 813 818 812 807 802 801 803 807 811 813 817 818 819 823 824 825 825 823 824 825 818 796 767 759 762 752 747 751 748 745 747 748 750 751 751 752 755 762 768
772 769 757 751 756 758 764 770 770 769 768 765 762 758 755 754 757 758 757 759 761 759 758 757 758 759 763 770 773 771 774 778 781 783 778 774 770 764 761 760 763 772 779 785 785 781 785 789 794 809 814 806 798 797 797 795 794 797 800 804 805 809 817 820 822 825 823 819 818 819 798 758 746 755 749 745 749 749 747 745 744 747 748 748 753 757 760 763
770 766 755 751 754 755 762 767 763 762 763 759 753 750 751 750 752 756 757 759 762 761 760 759 758 756 757 762 765 766 771 774 777 779 773 769 765 760 757 757 759 765 771 778 778 772 777 786 791 800 804 800 797 800 805 801 794 796 798 796 797 801 804 808 812 816 820 817 811 820 808 762 743 754 753 750 753 753 755 751 744 744 745 750 755 757 760 762
767 761 754 753 752 752 759 762 759 760 760 754 748 747 747 749 752 755 757 760 762 761 761 760 757 755 754 754 757 763 766 767 771 771 766 764 762 757 756 758 759 762 764 770 773 771 776 784 788 793 797 798 798 799 803 802 798 799 800 797 797 798 796 798 802 805 809 807 807 821 809 763 747 758 758 756 757 757 761 755 745 743 745 750 755 755 757 760
763 758 754 755 754 751 752 753 752 755 755 752 752 751 750 749 751 752 753 756 756 755 757 757 754 754 753 752 754 758 759 761 764 763 761 761 758 754 754 756 759 760 758 760 764 767 775 781 784 792 798 798 801 801 799 800 800 796 796 796 793 791 796 799 803 808 805 792 794 808 793 759 752 758 755 756 754 750 755 758 753 748 744 747 753 754 757 759
762 758 753 753 753 750 745 742 742 746 749 750 751 751 751 750 749 747 748 751 751 751 752 751 750 752 754 754 755 756 756 756 758 759 759 759 756 754 753 754 757 755 751 751 751 755 766 772 775 787 794 791 788 785 782 789 799 796 790 793 791 790 796 796 799 807 799 785 787 789 772 755 753 752 748 752 751 745 747 753 754 752 749 751 753 753 756 759
762 757 751 750 750 748 743 738 738 741 744 747 749 748 749 750 747 745 746 749 750 749 748 747 749 752 755 756 758 760 759 756 756 759 759 757 754 753 752 753 754 751 749 751 751 754 762 765 765 771 777 771 764 764 767 776 789 790 784 788 791 790 791 791 795 796 787 786 786 772 760 757 753 749 748 748 748 745 744 746 747 748 749 750 751 753 758 759
760 753 747 746 745 744 743 740 739 740 739 740 741 741 744 747 745 745 747 745 745 746 747 747 749 751 752 754 758 760 760 760 759 758 758 755 753 752 752 753 752 748 748 752 753 755 761 764 763 762 763 758 753 759 766 767 772 776 778 783 787 788 790 792 789 777 773 784 779 758 759 762 750 747 749 743 744 746 744 742 740 741 744 745 749 755 757 757
757 749 742 741 741 740 739 736 736 739 738 736 734 731 735 741 741 743 745 744 742 744 746 748 748 747 745 747 753 758 760 763 764 759 755 754 754 753 752 753 752 748 750 753 753 753 758 761 761 760 759 753 749 756 764 761 760 764 769 775 779 783 787 785 777 766 767 776 762 747 757 756 740 742 745 739 741 741 737 736 737 739 742 742 747 751 750 752
752 748 743 742 740 737 734 732 734 737 736 735 733 727 727 732 734 735 738 743 744 741 743 745 743 741 740 742 749 753 754 757 759 755 751 751 752 753 752 750 749 749 753 754 753 753 754 754 754 756 758 752 746 752 759 758 759 761 763 766 769 774 775 769 765 763 766 767 752 746 756 748 731 734 738 736 739 737 734 737 739 738 736 737 742 745 744 747
748 747 744 743 741 737 735 734 735 737 735 734 731 726 723 723 725 727 729 735 740 740 739 738 735 734 738 741 745 745 741 741 741 738 740 746 749 748 746 742 742 749 755 753 753 755 754 752 751 754 759 754 745 749 757 757 757 759 761 764 763 764 764 762 761 764 769 767 753 752 759 746 728 729 733 733 735 736 736 737 736 734 733 734 738 740 740 741
745 744 744 745 742 736 733 733 734 737 737 734 730 727 724 720 718 721 723 723 728 731 733 732 730 731 735 739 741 737 731 731 729 725 729 737 739 738 738 736 737 746 753 752 751 754 755 755 754 756 762 754 741 747 757 758 759 762 763 761 758 754 754 757 758 758 760 760 757 762 762 740 725 728 731 730 733 734 733 732 731 732 733 734 735 735 736 736
743 742 744 747 742 733 730 731 731 732 731 728 727 724 722 719 715 718 722 721 720 722 724 724 725 728 732 734 732 725 720 721 723 725 729 732 733 733 735 735 735 740 747 750 751 752 754 754 753 757 760 751 740 746 756 761 767 766 752 741 740 744 748 752 752 748 746 749 753 755 744 723 718 727 730 731 734 732 729 727 726 726 728 731 733 732 731 731